Holland, MI

5:50 AM EST on January 22, 2018 (GMT -0500)
Tulip City

Weather History for KBIV - December, 2013

Change the Weather History Date:

Tuesday, December 31, 2013

  Actual Average Record
Temperature  
Mean Temperature 17 °F 28 °F  
Max Temperature 19 °F 33 °F 58 °F (1965)
Min Temperature 15 °F 22 °F -16 °F (1963)
Degree Days  
Heating Degree Days 48 37  
Month to date heating degree days 1180 1045  
Since 1 July heating degree days 2416 2268  
Cooling Degree Days 0 0  
Month to date cooling degree days 0 0  
Year to date cooling degree days 813 693  
Moisture  
Dew Point 11 °F    
Average Humidity 80    
Maximum Humidity 92    
Minimum Humidity 67    
Precipitation  
Precipitation 0.10 in 0.06 in 0.75 in (1967)
Month to date precipitation 1.63 2.30  
Year to date precipitation 40.14 36.46  
Sea Level Pressure  
Sea Level Pressure 30.20 in    
Wind  
Wind Speed 10 mph (West)    
Max Wind Speed 22 mph    
Max Gust Speed 26 mph    
Visibility 2 miles    
Events Fog , Snow    
T = Trace of Precipitation, MM = Missing Value Source: NWS Daily Summary

Daily Weather History Graph

Daily Weather History Graph

Search for Another Location

Airport or City:

Trip Planner

Search our weather history database for the weather conditions in past years. The results will help you decide how hot, cold, wet, or windy it might be!

Date:

Astronomy

Dec. 31, 2013 Rise Set
Actual Time 8:14 AM EST 5:20 PM EST
Civil Twilight 7:42 AM EST 5:52 PM EST
Nautical Twilight 7:07 AM EST 6:28 PM EST
Astronomical Twilight 6:32 AM EST 7:02 PM EST
Moon 7:06 AM EST (12/31) 4:57 PM EST (12/31)
Length of Visible Light 10h 09m
Length of Day
9h 05m
Waning Crescent, 1% of the Moon is Illuminated
Dec 31
Waning Crescent
Jan 1
New
Jan 7
First Quarter
Jan 15
Full
Jan 24
Last Quarter

Hourly Weather History & Observations

Time (EST) Temp. Windchill Dew Point Humidity Pressure Visibility Wind Dir Wind Speed Gust Speed Precip Events Conditions
12:23 AM 16.0 °F 2.9 °F 10.9 °F 81% 30.11 in 1.8 mi West 11.5 mph - 0.00 in Snow Light Snow
12:37 AM 16.0 °F 4.4 °F 10.9 °F 81% 30.11 in 1.2 mi West 9.2 mph - 0.00 in Snow Light Snow
12:43 AM 16.0 °F 5.3 °F 10.9 °F 81% 30.11 in 1.5 mi West 8.1 mph - 0.00 in Snow Light Snow
12:53 AM 16.0 °F 4.4 °F 10.0 °F 77% 30.14 in 2.5 mi West 9.2 mph - 0.00 in Snow Light Snow
1:16 AM 16.0 °F 3.6 °F 10.9 °F 81% 30.09 in 5.0 mi West 10.4 mph - 0.00 in Snow Light Snow
1:23 AM 16.0 °F 2.3 °F 10.0 °F 77% 30.09 in 2.0 mi West 12.7 mph - 0.00 in Snow Light Snow
1:26 AM 16.0 °F 2.9 °F 10.0 °F 77% 30.09 in 1.2 mi West 11.5 mph - 0.00 in Snow Light Snow
1:33 AM 16.0 °F 2.3 °F 10.9 °F 81% 30.09 in 1.5 mi West 12.7 mph - 0.00 in Snow Light Snow
1:51 AM 15.8 °F 4.2 °F 10.4 °F 79% 30.09 in 2.0 mi West 9.2 mph - 0.00 in Snow Light Snow
1:53 AM 16.0 °F 5.3 °F 10.9 °F 81% 30.13 in 2.0 mi West 8.1 mph - 0.00 in Snow Light Snow
2:02 AM 16.0 °F 4.4 °F 10.9 °F 81% 30.09 in 1.2 mi West 9.2 mph - 0.00 in Snow Light Snow
2:09 AM 16.0 °F 3.6 °F 12.0 °F 84% 30.09 in 1.0 mi West 10.4 mph - 0.00 in Snow Light Snow
2:14 AM 16.0 °F 2.3 °F 10.9 °F 81% 30.09 in 2.0 mi West 12.7 mph - 0.00 in Snow Light Snow
2:20 AM 16.0 °F 3.6 °F 10.9 °F 81% 30.09 in 3.0 mi West 10.4 mph - 0.00 in Snow Light Snow
2:42 AM 16.0 °F 3.6 °F 10.9 °F 81% 30.09 in 1.8 mi West 10.4 mph 19.6 mph 0.00 in Snow Light Snow
2:47 AM 15.8 °F 3.4 °F 10.4 °F 79% 30.09 in 1.2 mi West 10.4 mph - 0.00 in Snow Light Snow
2:53 AM 16.0 °F 5.3 °F 10.9 °F 81% 30.14 in 0.8 mi West 8.1 mph - 0.00 in Snow Light Snow
3:07 AM 15.1 °F 1.8 °F 10.9 °F 84% 30.10 in 1.0 mi West 11.5 mph 20.7 mph 0.00 in Snow Light Snow
3:23 AM 15.1 °F 3.3 °F 10.9 °F 84% 30.10 in 1.5 mi WNW 9.2 mph - 0.00 in Snow Light Snow
3:37 AM 15.1 °F 1.8 °F 9.0 °F 77% 30.09 in 2.5 mi West 11.5 mph - 0.00 in Snow Light Snow
3:41 AM 15.1 °F 2.5 °F 9.0 °F 77% 30.09 in 3.0 mi West 10.4 mph - 0.00 in Snow Light Snow
3:53 AM 15.1 °F 3.3 °F 9.0 °F 77% 30.13 in 2.0 mi West 9.2 mph 18.4 mph 0.00 in Snow Light Snow
4:03 AM 15.1 °F 4.2 °F 10.0 °F 80% 30.09 in 1.8 mi WNW 8.1 mph - 0.00 in Snow Light Snow
4:08 AM 15.1 °F 5.2 °F 9.0 °F 77% 30.09 in 3.0 mi WNW 6.9 mph - 0.01 in Snow Light Snow
4:23 AM 15.1 °F 2.5 °F 9.0 °F 77% 30.09 in 2.5 mi West 10.4 mph - 0.01 in Snow Light Snow
4:37 AM 15.1 °F 1.8 °F 9.0 °F 77% 30.09 in 5.0 mi West 11.5 mph - 0.01 in Snow Light Snow
4:53 AM 16.0 °F 5.3 °F 9.0 °F 74% 30.13 in 3.0 mi WNW 8.1 mph - 0.01 in Snow Light Snow
5:20 AM 16.0 °F 4.4 °F 10.0 °F 77% 30.10 in 2.5 mi WNW 9.2 mph - 0.00 in Snow Light Snow
5:33 AM 16.0 °F 2.3 °F 9.0 °F 74% 30.10 in 5.0 mi WNW 12.7 mph 17.3 mph 0.00 in Snow Light Snow
5:39 AM 16.0 °F 2.9 °F 10.0 °F 77% 30.10 in 1.8 mi WNW 11.5 mph 20.7 mph 0.00 in Snow Light Snow
5:42 AM 16.0 °F 2.9 °F 10.9 °F 81% 30.10 in 1.2 mi WNW 11.5 mph 20.7 mph 0.00 in Snow Light Snow
5:53 AM 16.0 °F 2.3 °F 10.9 °F 81% 30.15 in 1.8 mi WNW 12.7 mph 20.7 mph 0.00 in Snow Light Snow
5:56 AM 16.0 °F 3.6 °F 10.9 °F 81% 30.11 in 3.0 mi NW 10.4 mph 20.7 mph 0.00 in Snow Light Snow
6:53 AM 16.0 °F 3.6 °F 10.0 °F 77% 30.17 in 2.5 mi NW 10.4 mph - 0.00 in Snow Light Snow
7:07 AM 16.0 °F 4.4 °F 10.0 °F 77% 30.13 in 4.0 mi WNW 9.2 mph - 0.00 in Snow Light Snow
7:53 AM 16.0 °F 3.6 °F 10.0 °F 77% 30.19 in 4.0 mi WNW 10.4 mph - 0.00 in Snow Light Snow
8:19 AM 16.0 °F 2.9 °F 10.0 °F 77% 30.16 in 1.8 mi WNW 11.5 mph 20.7 mph 0.00 in Snow Light Snow
8:26 AM 16.0 °F 6.3 °F 10.0 °F 77% 30.16 in 3.0 mi West 6.9 mph - 0.00 in Snow Light Snow
8:44 AM 17.1 °F 6.6 °F 10.0 °F 74% 30.17 in 2.5 mi WNW 8.1 mph - 0.00 in Snow Light Snow
8:51 AM 17.6 °F 5.0 °F 8.6 °F 68% 30.18 in 4.0 mi WNW 11.5 mph 18.4 mph 0.00 in Snow Light Snow
8:53 AM 17.1 °F 4.3 °F 9.0 °F 71% 30.22 in 5.0 mi WNW 11.5 mph - 0.00 in Snow Light Snow
9:48 AM 17.6 °F 6.4 °F 10.4 °F 73% 30.19 in 3.0 mi WNW 9.2 mph - 0.00 in Snow Light Snow
9:53 AM 17.1 °F 7.6 °F 10.0 °F 74% 30.24 in 2.5 mi Variable 6.9 mph - 0.00 in Snow Light Snow
10:00 AM 17.1 °F 5.0 °F 10.0 °F 74% 30.20 in 5.0 mi WNW 10.4 mph - 0.00 in Snow Light Snow
10:53 AM 18.0 °F 7.7 °F 8.1 °F 65% 30.26 in 9.0 mi West 8.1 mph - 0.00 in   Overcast
11:00 AM 18.0 °F 6.1 °F 9.0 °F 68% 30.22 in 3.0 mi WNW 10.4 mph 18.4 mph 0.00 in Snow Light Snow
11:03 AM 17.1 °F 4.3 °F 10.0 °F 74% 30.23 in 1.8 mi West 11.5 mph 18.4 mph 0.00 in Snow Light Snow
11:11 AM 18.0 °F 5.4 °F 10.0 °F 71% 30.23 in 1.8 mi West 11.5 mph - 0.00 in Snow Light Snow
11:16 AM 18.0 °F 4.8 °F 10.0 °F 71% 30.24 in 3.0 mi West 12.7 mph - 0.00 in Snow Light Snow
11:26 AM 18.0 °F 6.1 °F 9.0 °F 68% 30.24 in 5.0 mi West 10.4 mph - 0.00 in Snow Light Snow
11:53 AM 18.0 °F 2.6 °F 10.0 °F 71% 30.28 in 2.5 mi West 17.3 mph 23.0 mph 0.00 in Snow Light Snow
12:03 PM 18.0 °F 4.8 °F 10.0 °F 71% 30.24 in 1.5 mi West 12.7 mph - 0.00 in Snow Light Snow
12:15 PM 18.0 °F 4.2 °F 12.0 °F 78% 30.24 in 1.2 mi West 13.8 mph - 0.00 in Snow Light Snow
12:20 PM 18.0 °F 4.8 °F 12.0 °F 78% 30.24 in 2.0 mi West 12.7 mph - 0.00 in Snow Light Snow
12:22 PM 18.0 °F 2.2 °F 12.0 °F 78% 30.24 in 1.2 mi West 18.4 mph 21.9 mph 0.00 in Snow Light Snow
12:32 PM 19.0 °F 3.2 °F 10.9 °F 71% 30.24 in 2.0 mi WSW 19.6 mph 23.0 mph 0.00 in Snow Light Snow
12:42 PM 18.0 °F 2.2 °F 12.9 °F 81% 30.24 in 0.8 mi WSW 18.4 mph - 0.00 in Snow Light Snow
12:51 PM 17.6 °F 2.2 °F 12.2 °F 79% 30.23 in 1.5 mi WSW 17.3 mph - 0.00 in Snow Light Snow
12:53 PM 18.0 °F 2.6 °F 10.9 °F 74% 30.27 in 2.5 mi West 17.3 mph - 0.00 in Snow Light Snow
1:00 PM 19.0 °F 6.1 °F 9.0 °F 65% 30.23 in 9.0 mi WSW 12.7 mph - 0.00 in   Overcast
1:13 PM 19.0 °F 4.0 °F 10.0 °F 68% 30.23 in 10.0 mi WSW 17.3 mph - 0.00 in   Overcast
1:19 PM 17.1 °F 1.0 °F 12.0 °F 81% 30.23 in 1.2 mi WSW 18.4 mph - 0.00 in Snow Light Snow
1:24 PM 17.1 °F 1.5 °F 12.9 °F 84% 30.23 in 0.5 mi WSW 17.3 mph - 0.00 in Fog , Snow Snow
1:31 PM 17.1 °F 1.0 °F 12.0 °F 81% 30.23 in 0.5 mi West 18.4 mph - 0.00 in Snow Snow
1:47 PM 17.6 °F 2.2 °F 12.2 °F 79% 30.22 in 1.0 mi West 17.3 mph - 0.00 in Snow Light Snow
1:53 PM 18.0 °F 3.6 °F 10.9 °F 74% 30.26 in 3.0 mi WSW 15.0 mph - 0.00 in Snow Light Snow
2:02 PM 18.0 °F 1.3 °F 10.0 °F 71% 30.23 in 8.0 mi WSW 20.7 mph - 0.00 in Snow Light Snow
2:53 PM 18.0 °F 3.1 °F 10.0 °F 71% 30.27 in 8.0 mi West 16.1 mph - 0.00 in Snow Light Snow
3:53 PM 18.0 °F 5.4 °F 10.9 °F 74% 30.27 in 8.0 mi West 11.5 mph - 0.00 in Snow Light Snow
4:53 PM 19.0 °F 5.0 °F 10.9 °F 71% 30.28 in 10.0 mi West 15.0 mph - 0.00 in   Overcast
5:23 PM 18.0 °F 3.6 °F 12.0 °F 78% 30.24 in 1.8 mi West 15.0 mph 20.7 mph 0.00 in Snow Light Snow
5:31 PM 18.0 °F 4.8 °F 12.9 °F 81% 30.24 in 1.2 mi West 12.7 mph - 0.00 in Snow Light Snow
5:38 PM 18.0 °F 5.4 °F 12.9 °F 81% 30.25 in 1.5 mi West 11.5 mph - 0.00 in Snow Light Snow
5:44 PM 18.0 °F 6.9 °F 12.9 °F 81% 30.25 in 1.0 mi West 9.2 mph - 0.00 in Snow Light Snow
5:51 PM 17.6 °F 5.0 °F 12.2 °F 79% 30.25 in 1.5 mi West 11.5 mph - 0.00 in Snow Light Snow
5:53 PM 18.0 °F 4.8 °F 12.0 °F 78% 30.29 in 1.8 mi West 12.7 mph - 0.00 in Snow Light Snow
6:23 PM 18.0 °F 5.4 °F 12.9 °F 81% 30.25 in 1.2 mi West 11.5 mph - 0.00 in Snow Light Snow
6:39 PM 18.0 °F 7.7 °F 14.0 °F 84% 30.25 in 0.8 mi West 8.1 mph - 0.00 in Snow Light Snow
6:47 PM 17.6 °F 5.7 °F 14.0 °F 86% 30.25 in 1.0 mi West 10.4 mph - 0.00 in Snow Light Snow
6:53 PM 18.0 °F 6.9 °F 12.9 °F 81% 30.30 in 1.5 mi West 9.2 mph - 0.00 in Snow Light Snow
7:00 PM 18.0 °F 8.7 °F 14.0 °F 84% 30.25 in 0.8 mi West 6.9 mph - 0.01 in Snow Light Snow
7:16 PM 18.0 °F 6.1 °F 14.0 °F 84% 30.26 in 1.5 mi West 10.4 mph - 0.01 in Snow Light Snow
7:21 PM 18.0 °F 8.7 °F 12.9 °F 81% 30.26 in 2.5 mi WNW 6.9 mph - 0.01 in Snow Light Snow
7:30 PM 18.0 °F 8.7 °F 12.9 °F 81% 30.26 in 1.2 mi West 6.9 mph - 0.01 in Snow Light Snow
7:53 PM 17.1 °F 7.6 °F 14.0 °F 88% 30.30 in 1.0 mi NW 6.9 mph - 0.02 in Snow Light Snow
8:20 PM 18.0 °F 8.7 °F 14.0 °F 84% 30.26 in 1.5 mi NW 6.9 mph - 0.01 in Snow Light Snow
8:27 PM 18.0 °F 9.8 °F 14.0 °F 84% 30.27 in 0.8 mi NW 5.8 mph - 0.01 in Snow Light Snow
8:39 PM 18.0 °F 11.1 °F 14.0 °F 84% 30.27 in 1.0 mi West 4.6 mph - 0.02 in Snow Light Snow
8:47 PM 17.6 °F 10.7 °F 14.0 °F 86% 30.28 in 1.8 mi West 4.6 mph - 0.02 in Snow Light Snow
8:53 PM 18.0 °F 9.8 °F 14.0 °F 84% 30.32 in 1.8 mi WNW 5.8 mph - 0.02 in Snow Light Snow
9:03 PM 18.0 °F 8.7 °F 14.0 °F 84% 30.28 in 1.0 mi WNW 6.9 mph - 0.00 in Snow Light Snow
9:22 PM 18.0 °F 8.7 °F 15.1 °F 88% 30.28 in 0.8 mi WNW 6.9 mph - 0.01 in Snow Light Snow
9:36 PM 18.0 °F 11.1 °F 15.1 °F 88% 30.29 in 1.0 mi Variable 4.6 mph - 0.01 in Snow Light Snow
9:43 PM 18.0 °F 11.1 °F 15.1 °F 88% 30.29 in 0.8 mi NW 4.6 mph - 0.02 in Snow Light Snow
9:53 PM 18.0 °F 12.7 °F 15.1 °F 88% 30.34 in 0.8 mi NW 3.5 mph - 0.03 in Snow Light Snow
10:01 PM 18.0 °F 8.7 °F 15.1 °F 88% 30.30 in 1.0 mi NW 6.9 mph - 0.00 in Snow Light Snow
10:20 PM 18.0 °F 11.1 °F 14.0 °F 84% 30.30 in 1.5 mi NNW 4.6 mph - 0.00 in Snow Light Snow
10:53 PM 18.0 °F 11.1 °F 14.0 °F 84% 30.35 in 1.0 mi NNW 4.6 mph - 0.01 in Snow Light Snow
11:19 PM 18.0 °F 12.7 °F 14.0 °F 84% 30.31 in 1.5 mi Variable 3.5 mph - 0.01 in Snow Light Snow
11:27 PM 17.1 °F 11.7 °F 14.0 °F 88% 30.31 in 1.0 mi North 3.5 mph - 0.01 in Snow Light Snow
11:44 PM 17.1 °F 8.7 °F 12.9 °F 84% 30.31 in 1.5 mi North 5.8 mph - 0.01 in Snow Light Snow
11:53 PM 16.0 °F 10.4 °F 12.9 °F 88% 30.36 in 1.8 mi NNE 3.5 mph - 0.01 in Snow Light Snow